Weather History for South Haven, MI

Change the Weather History Date:

Tuesday, October 16, 2012

  Actual Average (KBIV) Record (KBIV)
Temperature  
Mean Temperature 48 °F 53 °F  
Max Temperature 63 °F 62 °F 82 °F (1956)
Min Temperature 32 °F 43 °F 26 °F (1991)
Degree Days  
Heating Degree Days 18 13  
Month to date heating degree days 169  
Since 1 July heating degree days 299  
Cooling Degree Days 0 0  
Month to date cooling degree days 10  
Year to date cooling degree days 692  
Moisture  
Dew Point 40 °F    
Average Humidity 71    
Maximum Humidity 98    
Minimum Humidity 46    
Precipitation  
Precipitation 0.00 in 0.13 in 1.03 in (1993)
Month to date precipitation 1.73  
Year to date precipitation 28.84  
Sea Level Pressure  
Sea Level Pressure 29.83 in    
Wind  
Wind Speed 4 mph (SSE)    
Max Wind Speed 15 mph    
Max Gust Speed 23 mph    
Visibility 10 miles    
Events      
T = Trace of Precipitation, MM = Missing Value Source: NWS Daily Summary

Daily Weather History Graph

Daily Weather History Graph

Search for Another Location

Airport:

Trip Planner

Search our weather history database for the weather conditions in past years. The results will help you decide how hot, cold, wet, or windy it might be!

Date:

Astronomy

Oct. 16, 2012 Rise Set
Actual Time 7:59 AM EDT 7:00 PM EDT
Civil Twilight 7:31 AM EDT 7:28 PM EDT
Nautical Twilight 6:58 AM EDT 8:01 PM EDT
Astronomical Twilight 6:26 AM EDT 8:33 PM EDT
Moon 9:24 AM EDT (10/16) 7:41 PM EDT (10/16)
Length of Visible Light 11h 57m
Length of Day
11h 01m
New Moon, 2% of the Moon is Illuminated
Oct 16
New Moon
Oct 21
First Quarter
Oct 29
Full
Nov 6
Last Quarter
Nov 13
New

Hourly Weather History & Observations

Time (EDT) Temp. Windchill Dew Point Humidity Pressure Visibility Wind Dir Wind Speed Gust Speed Precip Events Conditions
12:15 AM 36.0 °F - 35.4 °F 98% 29.97 in 10.0 mi Calm Calm - N/A   Clear
12:35 AM 34.9 °F - 34.2 °F 97% 29.97 in 10.0 mi Calm Calm - N/A   Clear
12:55 AM 34.7 °F - 34.0 °F 97% 29.96 in 10.0 mi Calm Calm - N/A   Clear
1:15 AM 34.0 °F - 33.3 °F 97% 29.96 in 10.0 mi Calm Calm - N/A   Clear
1:35 AM 34.3 °F - 33.6 °F 97% 29.97 in 10.0 mi Calm Calm - N/A   Clear
1:55 AM 34.3 °F - 33.4 °F 97% 29.97 in 10.0 mi Calm Calm - N/A   Clear
2:15 AM 34.5 °F - 33.6 °F 97% 29.98 in 10.0 mi Calm Calm - N/A   Clear
2:35 AM 32.7 °F - 32.2 °F 98% 29.97 in 10.0 mi Calm Calm - N/A   Clear
2:55 AM 34.0 °F - 33.4 °F 98% 29.97 in 10.0 mi Calm Calm - N/A   Clear
3:15 AM 34.3 °F - 33.6 °F 97% 29.97 in 10.0 mi Calm Calm - N/A   Clear
3:35 AM 34.9 °F - 34.0 °F 97% 29.96 in 10.0 mi Calm Calm - N/A   Clear
3:55 AM 34.5 °F - 33.8 °F 97% 29.97 in 10.0 mi Calm Calm - N/A   Clear
4:15 AM 34.0 °F - 32.9 °F 96% 29.96 in 10.0 mi Calm Calm - N/A   Clear
4:35 AM 34.7 °F - 34.0 °F 97% 29.96 in 10.0 mi Calm Calm - N/A   Clear
4:55 AM 33.3 °F - 32.7 °F 98% 29.95 in 10.0 mi Calm Calm - N/A   Clear
5:15 AM 36.0 °F - 34.9 °F 96% 29.96 in 10.0 mi Calm Calm - N/A   Clear
5:35 AM 36.7 °F - 34.7 °F 93% 29.96 in 10.0 mi Calm Calm - N/A   Clear
5:55 AM 36.1 °F - 34.9 °F 95% 29.95 in 10.0 mi Calm Calm - N/A   Clear
6:15 AM 38.1 °F 35.7 °F 36.5 °F 94% 29.94 in 10.0 mi SE 3.5 mph - N/A   Clear
6:35 AM 38.1 °F - 36.0 °F 92% 29.94 in 10.0 mi Calm Calm - N/A   Clear
6:55 AM 38.3 °F - 36.5 °F 93% 29.94 in 10.0 mi Calm Calm - N/A   Clear
7:15 AM 37.8 °F - 36.0 °F 93% 29.95 in 10.0 mi Calm Calm - N/A   Clear
7:35 AM 38.3 °F - 36.1 °F 92% 29.94 in 10.0 mi Calm Calm - N/A   Clear
8:15 AM 38.1 °F - 36.1 °F 93% 29.94 in 10.0 mi Calm Calm - N/A   Clear
8:36 AM 39.4 °F - 36.7 °F 90% 29.95 in 10.0 mi Calm Calm - N/A   Clear
8:55 AM 40.5 °F 38.4 °F 37.4 °F 89% 29.94 in 10.0 mi SE 3.5 mph - N/A   Clear
9:15 AM 42.1 °F 38.4 °F 38.1 °F 86% 29.95 in 10.0 mi South 5.8 mph - N/A   Clear
9:35 AM 44.2 °F 41.0 °F 39.2 °F 82% 29.95 in 10.0 mi SSE 5.8 mph - N/A   Clear
9:55 AM 45.1 °F 41.4 °F 39.9 °F 82% 29.95 in 10.0 mi SSE 6.9 mph - N/A   Clear
10:15 AM 46.8 °F - 40.8 °F 80% 29.94 in 10.0 mi SE 5.8 mph - N/A   Clear
10:35 AM 48.2 °F - 41.0 °F 76% 29.93 in 10.0 mi SSE 6.9 mph - N/A   Clear
10:55 AM 48.7 °F - 41.0 °F 75% 29.93 in 10.0 mi SE 6.9 mph - N/A   Clear
11:15 AM 51.8 °F - 41.7 °F 68% 29.92 in 10.0 mi SSE 10.4 mph - N/A   Clear
11:35 AM 52.7 °F - 41.2 °F 65% 29.91 in 10.0 mi SSE 8.1 mph - N/A   Clear
11:55 AM 54.5 °F - 41.7 °F 62% 29.90 in 10.0 mi SSE 10.4 mph 16.1 mph N/A   Clear
12:15 PM 56.8 °F - 42.4 °F 59% 29.89 in 10.0 mi South 10.4 mph - N/A   Clear
12:35 PM 57.2 °F - 42.1 °F 57% 29.89 in 10.0 mi SSE 10.4 mph - N/A   Clear
12:55 PM 58.3 °F - 42.1 °F 55% 29.86 in 10.0 mi SSE 9.2 mph - N/A   Clear
1:15 PM 59.2 °F - 42.6 °F 54% 29.85 in 10.0 mi South 12.7 mph 19.6 mph N/A   Clear
1:35 PM 60.1 °F - 42.8 °F 53% 29.84 in 10.0 mi South 12.7 mph 19.6 mph N/A   Clear
1:55 PM 61.3 °F - 42.6 °F 50% 29.82 in 10.0 mi SSE 10.4 mph - N/A   Clear
2:15 PM 61.7 °F - 42.4 °F 49% 29.81 in 10.0 mi SSE 12.7 mph 19.6 mph N/A   Clear
2:35 PM 62.6 °F - 43.0 °F 49% 29.79 in 10.0 mi South 15.0 mph 19.6 mph N/A   Clear
2:55 PM 63.0 °F - 43.0 °F 48% 29.79 in 10.0 mi South 11.5 mph 18.4 mph N/A   Clear
3:15 PM 63.5 °F - 42.4 °F 46% 29.77 in 10.0 mi South 15.0 mph 20.7 mph N/A   Clear
3:35 PM 63.1 °F - 43.0 °F 48% 29.76 in 10.0 mi South 15.0 mph 20.7 mph N/A   Clear
3:55 PM 62.8 °F - 42.8 °F 48% 29.74 in 10.0 mi SSE 10.4 mph 20.7 mph N/A   Clear
4:15 PM 63.1 °F - 42.6 °F 47% 29.73 in 10.0 mi SSE 8.1 mph 18.4 mph N/A   Clear
4:35 PM 63.9 °F - 43.0 °F 47% 29.72 in 10.0 mi SSE 11.5 mph 17.3 mph N/A   Clear
4:55 PM 63.5 °F - 42.8 °F 47% 29.70 in 10.0 mi SSE 6.9 mph 10.4 mph N/A   Clear
5:15 PM 63.7 °F - 43.0 °F 47% 29.69 in 10.0 mi SE 12.7 mph 20.7 mph N/A   Clear
5:55 PM 62.6 °F - 43.0 °F 49% 29.67 in 10.0 mi SE 11.5 mph 18.4 mph N/A   Clear
6:15 PM 62.6 °F - 42.6 °F 48% 29.66 in 10.0 mi SE 9.2 mph 23.0 mph N/A   Clear
6:35 PM 61.9 °F - 42.8 °F 50% 29.65 in 10.0 mi SE 13.8 mph 20.7 mph N/A   Mostly Cloudy
6:55 PM 61.3 °F - 42.8 °F 51% 29.65 in 10.0 mi SSE 11.5 mph 19.6 mph N/A   Scattered Clouds
7:15 PM 61.0 °F - 43.0 °F 52% 29.63 in 10.0 mi SE 9.2 mph - N/A   Clear
7:35 PM 61.0 °F - 43.0 °F 52% 29.62 in 10.0 mi SSE 13.8 mph 18.4 mph N/A   Scattered Clouds
7:55 PM 60.8 °F - 43.0 °F 52% 29.65 in 10.0 mi South 8.1 mph 18.4 mph N/A   Scattered Clouds
8:15 PM 60.8 °F - 43.3 °F 53% 29.66 in 10.0 mi SSE 6.9 mph - N/A   Clear
8:35 PM 60.4 °F - 43.2 °F 53% 29.67 in 10.0 mi SSE 9.2 mph - N/A   Scattered Clouds
8:54 PM 60.3 °F - 43.2 °F 53% 29.66 in 10.0 mi SE 6.9 mph - N/A   Scattered Clouds
9:15 PM 59.7 °F - 43.2 °F 54% 29.66 in 10.0 mi SSE 5.8 mph - N/A   Clear
9:35 PM 59.9 °F - 43.3 °F 54% 29.65 in 10.0 mi SE 4.6 mph - N/A   Clear
9:55 PM 59.9 °F - 43.5 °F 55% 29.64 in 10.0 mi SE 5.8 mph - N/A   Clear
10:15 PM 59.9 °F - 43.5 °F 55% 29.64 in 10.0 mi SSE 8.1 mph - N/A   Clear
10:35 PM 59.9 °F - 43.9 °F 55% 29.63 in 10.0 mi SSE 6.9 mph - N/A   Clear
10:55 PM 60.1 °F - 43.9 °F 55% 29.63 in 10.0 mi South 10.4 mph 16.1 mph N/A   Clear
11:35 PM 59.9 °F - 44.6 °F 57% 29.63 in 10.0 mi SSE 10.4 mph 17.3 mph N/A   Clear
11:55 PM 59.9 °F - 45.0 °F 58% 29.62 in 10.0 mi SSE 8.1 mph - N/A   Scattered Clouds